Retour au catalogue

ASIASAT 6

ActifCommunicationsGEO
NORAD 40141·PAYLOAD·🇸🇭 SH

Lancé Sep 7, 2014 depuis Cape Canaveral Space Force Station

Loading…

TLE

FraisSource: Space-Track

Époque: Sep 14, 2026, 22:55 UTC

1 40141U 14052A   26257.95528090 -.00000369  00000-0  00000-0 0  9991
2 40141   0.0292 266.1193 0000889 252.9348 298.6913  1.00272159 43979

Suivez ASIASAT 6 en temps réel avec AllMySat

Download on the App Store